When you browse on this site, cookies collect data to enhance your experience and personalize the content and advertising you see.
Visit our Privacy Policy to learn more. By continuing to use the site, you agree to this use of cookies and data.
  • In United Kingdom
  • List of Countries
  • For 7 days
  • Water Temperature
  • Weather Map
  • Weather Widgets
  • user-avatar
    Login

    Hourly Weather Galata

    Today, 17 October, Thursday

    Time Temperature Precipitation Wind Pressure Humidity
    00:00 +15°C° 0 mm 1 mps 757 mmHg 90%
    01:00 +14°C° 0 mm 1 mps 757 mmHg 91%
    02:00 +14°C° 0 mm 1 mps 757 mmHg 91%
    03:00 +14°C° 0 mm 1 mps 757 mmHg 90%
    04:00 +14°C° 0 mm 1 mps 757 mmHg 89%
    05:00 +14°C° 0 mm 1 mps 757 mmHg 88%
    06:00 +15°C° 0 mm 1 mps 757 mmHg 84%
    07:00 +15°C° 0 mm 1 mps 757 mmHg 80%
    08:00 +16°C° 0 mm 1 mps 757 mmHg 76%
    09:00 +19°C° 0 mm 1 mps 757 mmHg 68%
    10:00 +21°C° 0 mm 1 mps 758 mmHg 59%
    11:00 +23°C° 0 mm 1 mps 758 mmHg 51%
    12:00 +24°C° 0 mm 1 mps 758 mmHg 49%
    13:00 +24°C° 0 mm 1 mps 757 mmHg 47%
    14:00 +25°C° 0 mm 1 mps 757 mmHg 45%
    15:00 +23°C° 0 mm 1 mps 757 mmHg 52%
    16:00 +22°C° 0 mm 1 mps 757 mmHg 60%
    17:00 +20°C° 0 mm 1 mps 757 mmHg 67%
    18:00 +19°C° 0 mm 1 mps 757 mmHg 72%
    19:00 +18°C° 0 mm 1 mps 757 mmHg 76%
    20:00 +16°C° 0 mm 0 mps 757 mmHg 80%
    21:00 +15°C° 0 mm 0 mps 757 mmHg 79%
    22:00 +15°C° 0 mm 0 mps 757 mmHg 79%
    23:00 +15°C° 0 mm 0 mps 758 mmHg 79%

    Tomorrow, 18 October, Friday

    Time Temperature Precipitation Wind Pressure Humidity
    00:00 +15°C° 0 mm 0 mps 757 mmHg 78%
    01:00 +15°C° 0 mm 0 mps 757 mmHg 78%
    02:00 +15°C° 0 mm 1 mps 757 mmHg 77%
    03:00 +15°C° 0 mm 1 mps 757 mmHg 77%
    04:00 +15°C° 0 mm 1 mps 757 mmHg 77%
    05:00 +15°C° 0 mm 1 mps 757 mmHg 77%
    06:00 +16°C° 0 mm 1 mps 757 mmHg 73%
    07:00 +16°C° 0 mm 1 mps 758 mmHg 69%
    08:00 +18°C° 0 mm 1 mps 758 mmHg 65%
    09:00 +20°C° 0 mm 1 mps 758 mmHg 59%
    10:00 +22°C° 0 mm 1 mps 758 mmHg 53%
    11:00 +23°C° 0 mm 1 mps 758 mmHg 46%
    12:00 +24°C° 0 mm 1 mps 758 mmHg 45%
    13:00 +24°C° 0 mm 1 mps 757 mmHg 44%
    14:00 +25°C° 0 mm 2 mps 757 mmHg 42%
    15:00 +23°C° 0 mm 2 mps 757 mmHg 48%
    16:00 +22°C° 0 mm 1 mps 757 mmHg 55%
    17:00 +20°C° 0 mm 1 mps 757 mmHg 61%
    18:00 +19°C° 0 mm 1 mps 757 mmHg 64%
    19:00 +19°C° 0 mm 1 mps 757 mmHg 68%
    20:00 +18°C° 0 mm 1 mps 757 mmHg 71%
    21:00 +16°C° 0 mm 1 mps 757 mmHg 72%
    22:00 +16°C° 0 mm 1 mps 757 mmHg 73%
    23:00 +15°C° 0 mm 0 mps 757 mmHg 74%

    Day after tomorrow, 19 October, Saturday

    Time Temperature Precipitation Wind Pressure Humidity
    00:00 +15°C° 0 mm 0 mps 757 mmHg 74%
    01:00 +14°C° 0 mm 0 mps 757 mmHg 74%
    02:00 +14°C° 0 mm 0 mps 757 mmHg 73%
    03:00 +14°C° 0 mm 0 mps 757 mmHg 72%
    04:00 +14°C° 0 mm 0 mps 757 mmHg 70%
    05:00 +14°C° 0 mm 0 mps 757 mmHg 68%
    06:00 +15°C° 0 mm 0 mps 757 mmHg 66%
    07:00 +15°C° 0 mm 0 mps 758 mmHg 63%
    08:00 +16°C° 0 mm 0 mps 758 mmHg 60%
    09:00 +20°C° 0 mm 1 mps 758 mmHg 56%
    10:00 +21°C° 0 mm 1 mps 758 mmHg 52%
    11:00 +23°C° 0 mm 1 mps 758 mmHg 47%
    12:00 +23°C° 0 mm 1 mps 758 mmHg 46%
    13:00 +24°C° 0 mm 1 mps 758 mmHg 45%
    14:00 +24°C° 0 mm 2 mps 757 mmHg 45%
    15:00 +23°C° 0 mm 2 mps 757 mmHg 51%
    16:00 +21°C° 0 mm 2 mps 757 mmHg 58%
    17:00 +19°C° 0 mm 2 mps 757 mmHg 64%
    18:00 +19°C° 0 mm 1 mps 757 mmHg 67%
    19:00 +18°C° 0 mm 1 mps 758 mmHg 70%
    20:00 +18°C° 0 mm 1 mps 758 mmHg 73%
    21:00 +16°C° 0 mm 1 mps 758 mmHg 74%
    22:00 +16°C° 0 mm 1 mps 758 mmHg 75%
    23:00 +16°C° 0 mm 1 mps 759 mmHg 77%

    20 October, Sunday

    Time Temperature Precipitation Wind Pressure Humidity
    00:00 +16°C° 0 mm 1 mps 758 mmHg 76%
    01:00 +14°C° 0 mm 0 mps 758 mmHg 76%
    02:00 +14°C° 0 mm 0 mps 758 mmHg 76%
    03:00 +14°C° 0 mm 0 mps 758 mmHg 75%
    04:00 +14°C° 0 mm 0 mps 759 mmHg 74%
    05:00 +14°C° 0 mm 0 mps 759 mmHg 72%
    06:00 +15°C° 0 mm 0 mps 759 mmHg 69%
    07:00 +16°C° 0 mm 1 mps 759 mmHg 66%
    08:00 +18°C° 0 mm 1 mps 759 mmHg 64%
    09:00 +20°C° 0 mm 1 mps 759 mmHg 59%
    10:00 +21°C° 0 mm 1 mps 759 mmHg 54%
    11:00 +23°C° 0 mm 2 mps 760 mmHg 48%
    12:00 +23°C° 0 mm 2 mps 759 mmHg 48%
    13:00 +24°C° 0 mm 2 mps 759 mmHg 47%
    14:00 +24°C° 0 mm 2 mps 759 mmHg 46%
    15:00 +23°C° 0 mm 2 mps 759 mmHg 52%
    16:00 +20°C° 0 mm 2 mps 759 mmHg 58%
    17:00 +20°C° 0 mm 1 mps 758 mmHg 65%
    18:00 +19°C° 0 mm 1 mps 759 mmHg 68%
    19:00 +18°C° 0 mm 1 mps 759 mmHg 72%
    20:00 +16°C° 0 mm 1 mps 759 mmHg 75%
    21:00 +16°C° 0 mm 1 mps 759 mmHg 77%
    22:00 +16°C° 0 mm 1 mps 760 mmHg 79%
    23:00 +15°C° 0 mm 1 mps 760 mmHg 81%

    21 October, Monday

    Time Temperature Precipitation Wind Pressure Humidity
    00:00 +15°C° 0 mm 1 mps 760 mmHg 82%
    01:00 +15°C° 0 mm 1 mps 760 mmHg 83%
    02:00 +13°C° 0 mm 0 mps 760 mmHg 84%
    03:00 +14°C° 0 mm 1 mps 760 mmHg 84%
    04:00 +14°C° 0 mm 1 mps 760 mmHg 84%
    05:00 +14°C° 0 mm 1 mps 760 mmHg 84%
    06:00 +15°C° 0 mm 1 mps 760 mmHg 80%
    07:00 +15°C° 0 mm 1 mps 760 mmHg 77%
    08:00 +16°C° 0 mm 1 mps 760 mmHg 73%
    09:00 +18°C° 0 mm 2 mps 760 mmHg 65%
    10:00 +20°C° 0 mm 2 mps 761 mmHg 57%
    11:00 +21°C° 0 mm 2 mps 761 mmHg 49%
    12:00 +23°C° 0 mm 2 mps 761 mmHg 46%
    13:00 +23°C° 0 mm 2 mps 760 mmHg 44%
    14:00 +24°C° 0 mm 2 mps 760 mmHg 42%
    15:00 +21°C° 0 mm 2 mps 760 mmHg 50%
    16:00 +20°C° 0 mm 2 mps 760 mmHg 57%
    17:00 +18°C° 0 mm 2 mps 760 mmHg 65%
    18:00 +17°C° 0 mm 2 mps 760 mmHg 69%
    19:00 +18°C° 0 mm 1 mps 760 mmHg 74%
    20:00 +16°C° 0 mm 1 mps 760 mmHg 78%
    21:00 +16°C° 0 mm 1 mps 760 mmHg 78%
    22:00 +15°C° 0 mm 1 mps 760 mmHg 78%
    23:00 +15°C° 0 mm 1 mps 760 mmHg 78%

    22 October, Tuesday

    Time Temperature Precipitation Wind Pressure Humidity
    00:00 +15°C° 0 mm 1 mps 760 mmHg 77%
    01:00 +15°C° 0 mm 2 mps 760 mmHg 76%
    02:00 +15°C° 0 mm 2 mps 760 mmHg 76%
    03:00 +14°C° 0 mm 2 mps 760 mmHg 76%
    04:00 +14°C° 0 mm 2 mps 760 mmHg 77%
    05:00 +14°C° 0 mm 2 mps 760 mmHg 77%
    06:00 +15°C° 0 mm 2 mps 760 mmHg 74%
    07:00 +15°C° 0 mm 2 mps 760 mmHg 72%
    08:00 +16°C° 0 mm 2 mps 760 mmHg 69%
    09:00 +18°C° 0 mm 3 mps 760 mmHg 61%
    10:00 +20°C° 0 mm 3 mps 760 mmHg 52%
    11:00 +22°C° 0 mm 3 mps 760 mmHg 44%
    12:00 +22°C° 0 mm 3 mps 760 mmHg 44%
    13:00 +23°C° 0 mm 4 mps 760 mmHg 44%
    14:00 +23°C° 0 mm 4 mps 759 mmHg 44%
    15:00 +22°C° 0 mm 4 mps 759 mmHg 51%
    16:00 +20°C° 0 mm 4 mps 759 mmHg 59%
    17:00 +19°C° 0 mm 4 mps 758 mmHg 67%
    18:00 +18°C° 0 mm 4 mps 759 mmHg 73%
    19:00 +17°C° 0 mm 3 mps 759 mmHg 78%
    20:00 +16°C° 0 mm 3 mps 759 mmHg 84%
    21:00 +14°C° 0 mm 3 mps 759 mmHg 84%
    22:00 +14°C° 0 mm 3 mps 759 mmHg 85%
    23:00 +13°C° 0 mm 3 mps 759 mmHg 86%
    Show more